www.pogodaiklimat.ru

Погода и климат >> Архив погоды >> Россия >> Приморский край >> Терней


ПОГОДА в Тернее

  • Прогноз погоды в Тернее
  • Монитор погоды в Тернее
  • Климат города

АРХИВ ПОГОДЫ в Тернее

Время (UTC), дата Ветер
(напр.,м/с)
 
Видим.   Явления Облачность Т
(С)
Тd
(С)
f
(%)
Тe
(С)
Тes
(С)
Комфортность P
(гПа)
Po
(гПа)
Тmin
(С)
Tmax
(С)
R
(мм)
R24
(мм)
S
(см)
18 19.06 Ю 1 20 км 10/10 300 м
[St]
+10.3 +8.9 91 +10 +10 1010.2 1002.7
21 19.06 В 1 50 км 10/10 300 м
[St]
+9.9 +8.4 90 +9 +9 1010.9 1003.4 +9.6 0.0
00 20.06 В 1 50 км 10/10 300 м
[St]
+11.0 +9.1 88 +11 +11 1011.5 1004.1
03 20.06 В 2 50 км 10/8 300 м
[St As op]
+13.1 +10.0 81 +12 +13 1011.2 1003.8
06 20.06 В 1 50 км 10/8 300 м
[St As op]
+12.9 +9.5 80 +13 +14 1011.0 1003.6
09 20.06 В 1 50 км 10/10 600 м
[Sc]
+12.2 +9.3 82 +12 +12 1011.5 1004.1 +13.4
12 20.06 ЮВ 1 20 км 10/10 600 м
[Sc]
+10.8 +9.1 89 +10 +10 1012.8 1005.4
15 20.06 В 1 20 км 10/10 600 м
[Sc]
+10.3 +8.9 91 +10 +10 1012.4 1005.0
18 20.06 В 1 20 км 10/10 300 м
[St]
+9.8 +8.8 93 +9 +9 1011.9 1004.4
21 20.06 штиль 0 50 км 10/10 200 м
[St]
+10.0 +9.0 93 +9 +9 1011.6 1004.1 +9.7
00 21.06 штиль 0 50 км 10/10 300 м
[St]
+12.9 +9.6 80 +12 +12 1011.0 1003.6
03 21.06 ЮВ 1 50 км 10/4 300 м
[St As op]
+12.2 +9.3 82 +12 +15 1009.8 1002.4
06 21.06 ЮВ 1 50 км 10/3 300 м
[St As op Cs]
+12.3 +9.5 83 +12 +17 1007.5 1000.1
09 21.06 ЮВ 1 50 км 10/10 300 м
[St]
+10.9 +9.3 90 +11 +11 1006.8 999.4 +13.7
12 21.06 СЗ 1 20 км 10/10 300 м
[St]
+10.5 +9.0 90 +10 +10 1007.5 1000.1
15 21.06 СЗ 1 10 км слабый ливневой дождь 10/10 600 м
[Cb cap]
+11.3 +9.5 89 +11 +11 1005.9 998.5
18 21.06 В 1 20 км {ливн. осадки} 8/8 300 м
[St]
+9.6 +8.7 94 +9 +9 1005.6 998.2
21 21.06 СВ 1 50 км гроза без осадков {ливн. осадки} 10/10 600 м
[Cb cap]
+10.5 +9.9 96 +10 +10 1005.1 997.7 +9.5 2
00 22.06 В 1 50 км {гроза, ливн. осадки} 10/3 200 м
[St Cs]
+15.1 +11.7 80 +16 +24 1004.7 997.4
03 22.06 В 2 50 км 10/3 200 м
[St As op]
+13.1 +10.3 83 +12 +15 1004.4 997.1
06 22.06 ЮЗ 3 10 км гроза, ливневой дождь 10/10 600 м
[Cb cap]
+13.2 +11.3 88 +12 +12 1004.4 997.1
09 22.06 ЮВ 1 50 км {гроза, ливн. осадки} 10/3 600 м
[Sc diur, vesp Ac trans Ci sp]
+16.8 +15.2 90 +18 +18 1004.0 996.8 +17.7 4
12 22.06 З 2 20 км {гроза, ливн. осадки} 4/0
[Ac trans]
+15.4 +14.8 96 +15 +15 1005.0 997.7
15 22.06 З 2 20 км 3/0
[Ci sp]
+15.9 +15.0 94 +16 +16 1005.4 998.1
18 22.06 З 4 20 км ясно +16.8 +13.3 80 +16 +16 1005.5 998.3
21 22.06 З 3 50 км 8/0
[Ci fib]
+18.7 +14.7 78 +20 +21 1005.6 998.4 +12.3
00 23.06 ЮВ 1 50 км ясно +21.0 +14.0 64 +25 +40 комфорт 1005.2 998.1
03 23.06 СВ 1 50 км 5/3 600 м
[Cu hum Cs]
+19.9 +13.8 68 +23 +38 комфорт 1003.8 996.7
06 23.06 С 1 10 км гроза, ливневой дождь 10/10 300 м
[Cb cap]
+18.7 +13.9 74 +21 +21 комфорт 1003.1 996.0
09 23.06 ЮВ 2 50 км {гроза, ливн. осадки} 10/10 600 м
[Cb cap]
+14.2 +11.8 85 +14 +14 1004.6 997.3 +24.8 0.0
12 23.06 З 1 10 км гроза, ливневой дождь 10/10 300 м
[Cb cap]
+13.6 +12.6 94 +14 +14 1004.9 997.6
15 23.06 Ю 1 20 км в посл. час гроза {ливн. осадки} 10/10 600 м
[Cb cap]
+13.7 +13.2 97 +14 +14 1003.3 996.0
18 23.06 ЮВ 1 4000 м дымка {гроза, ливн. осадки} 10/10 200 м
[St]
+13.1 +12.7 97 +13 +13 1002.4 995.1
21 23.06 З 2 10 км гроза, ливневой дождь 10/10 300 м
[Cb cap]
+14.4 +13.9 97 +14 +14 1003.3 996.0 +12.2 12
00 24.06 В 3
{11}
50 км {гроза, ливн. осадки} 10/10 200 м
[St]
+11.7 +11.1 96 +10 +10 1004.7 997.3 +11.7
03 24.06 В 2 50 км 10/8 300 м
[St As op]
+12.5 +10.1 85 +12 +12 1006.3 998.9
06 24.06 В 2
{10}
50 км 10/8 300 м
[St As op]
+11.7 +7.8 77 +11 +11 1006.2 998.8
09 24.06 В 1 50 км {ливн. осадки} 10/8 300 м
[St As op]
+10.5 +7.8 83 +10 +10 1006.4 999.0 +14.7 5
12 24.06 З 1 20 км в посл. час ливневой дождь 10/10 600 м
[Sc]
+9.9 +8.4 90 +9 +9 1007.2 999.7
15 24.06 Ю 1 20 км 10/10 600 м
[Sc]
+10.1 +7.6 84 +10 +10 1007.5 1000.0
18 24.06 З 1 20 км 10/10 600 м
[Sc]
+9.8 +7.5 86 +9 +9 1006.5 999.1
21 24.06 ЮЗ 1 50 км 10/10 600 м
[Sc]
+10.3 +8.1 86 +10 +10 1007.1 999.7 +9.5 0.0
00 25.06 ЮВ 1 50 км 10/10 600 м
[Sc]
+12.1 +8.5 79 +12 +12 1007.5 1000.1
03 25.06 В 2 50 км 10/10 600 м
[Sc]
+13.3 +9.1 76 +13 +13 1008.2 1000.8
06 25.06 В 2 50 км 9/9 600 м
[Sc]
+13.7 +8.7 72 +13 +14 1008.0 1000.7
09 25.06 В 2 50 км 8/8 600 м
[Sc]
+10.9 +6.3 73 +10 +10 1008.8 1001.4 +15.5
12 25.06 штиль 0 20 км 10/10 600 м
[Sc]
+10.3 +5.9 74 +10 +10 1010.0 1002.5
15 25.06 штиль 0 20 км 10/10
[Sc]
+9.9 +5.9 76 +9 +9 1009.7 1002.2
18 25.06 З 1 20 км 10/10 600 м
[Sc]
+9.3 +6.7 84 +9 +9 1009.4 1001.9
21 25.06 СЗ 1 50 км 10/10 600 м
[Sc]
+10.3 +7.8 84 +10 +10 1009.4 1001.9 +9.2
00 26.06 ЮВ 1 50 км 8/3 600 м
[Sc Ac As]
+13.6 +9.2 75 +14 +19 1009.3 1002.0
03 26.06 ЮВ 2 50 км ясно +17.0 +9.8 63 +17 +37 опасность
простуды
1007.9 1000.6
06 26.06 ЮВ 1 50 км 6/4 600 м
[Sc Ci fib]
+15.1 +8.0 63 +16 +23 1007.1 999.8
09 26.06 В 1 50 км 10/3 300 м
[St Ac und]
+10.5 +8.6 88 +10 +10 1008.5 1001.1 +17.4
12 26.06 Ю 1 20 км 10/10 300 м
[St]
+10.2 +8.7 90 +10 +10 1009.6 1002.2
15 26.06 З 1 20 км 10/10 300 м
[St]
+10.0 +8.9 93 +9 +9 1009.8 1002.4

 

Местоположение метеостанции Терней (Приморский край, Россия): широта 45.00 долгота 136.60 высота над уровнем моря 62 м.

В архиве по умолчанию представлена погода в Тернее за последнюю неделю. Архивные данные за месяц целиком и за предыдущие месяцы, начиная с января 2011 года, Вы можете получить, выбрав интересующий диапазон дат из раскрывающегося списка и нажав кнопку "Ввод!".

Внимание! Время в таблицах - всемирное. Для получения местного времени необходимо прибавить поправку, которая в Тернее равна 10 ч.

Смотрите также архив погоды в соседних городах и на ближайших метеорологических станциях:

Погода в Малой Кеме (Приморский край, Россия) (59 км)
Погода в Рудной Пристани (Приморский край, Россия) (94 км)
Погода в Мельничном (Приморский край, Россия) (100 км)
Погода в Богополе (Приморский край, Россия) (126 км)
Погода в Кавалерово (Приморский край, Россия) (152 км)
Погода в Глубинном (Приморский край, Россия) (156 км)
Погода в Охотничем (Приморский край, Россия) (171 км)
Погода в Ольге (Приморский край, Россия) (173 км)
Погода в Малиново (Приморский край, Россия) (194 км)
Погода в Красном Яре (Приморский край, Россия) (198 км)

Пояснения к столбцам:

Ветер - указаны скорость ветра в м/с - средняя за 10 мин, порывы в срок и между сроками (в фигурных скобках) и направление, откуда дует ветер: С - северный, СВ - северо-восточный, В - восточный, ЮВ - юго-восточный, Ю - южный, ЮЗ - юго-западный, З - западный, СЗ - северо-западный.
Видимость - горизонтальная дальность видимости в метрах или километрах. При видимости от 1 до 10 км при отсутствии осадков обычно наблюдается дымка, при ухудшении видимости до 1 км и менее - туман. В сухую погоду видимость может ухудшаться дымом, пылью или мглою.
Явления - указаны атмосферные явления, наблюдавшиеся в срок или в последний час перед сроком; фигурными скобками обозначены явления, наблюдавшиеся между сроками (за 1-3 часа до срока); квадратными скобками обозначены град или гололедные отложения с указанием их диаметра в мм.
Облачность - указаны через наклонную черту общая и нижняя облачность в баллах и высота нижней границы облаков в метрах; квадратными скобками обозначены формы облаков: Ci - перистые, Cs - перисто-слоистые, Cc - перисто-кучевые, Ac - высококучевые, As - высокослоистые, Sc - слоисто-кучевые, Ns - слоисто-дождевые, Cu - кучевые, Cb - кучево-дождевые. Подробнее классификацию облаков см. в Атласе облаков (PDF).
T - Температура воздуха - температура, измеренная на высоте 2 м над землей.
Td - Температура точки росы - температура, при понижении до которой содержащийся в воздухе водяной пар достигнет насыщения.
f - Относительная влажность воздуха - влажноcть воздуха, измеренная на высоте 2 м над землей.
Te - Эффективная температура - температура, которую ощущает одетый по сезону человек в тени. Характеристика душности погоды. При расчете учитывается влияние влажности воздуха и скорости ветра на теплоощущения человека.
Tes - Эффективная температура на солнце - температура, которую ощущает человек, с поправкой на солнечный нагрев. Характеристика знойности погоды. Зависит от высоты солнца над горизонтом, облачности и скорости ветра. Ночью, в пасмурную погоду, а также при ветре 12 м/с и более поправка равна нулю.
P - Атмосферное давление - приведенное к уровню моря атмосферное давление.
Po - Атмосферное давление - измеренное на уровне метеостанции атмосферное давление.
Tmin - Минимальная температура - минимум температуры воздуха на высоте 2 м над землей.
Tmax - Максимальная температура - максимум температуры воздуха на высоте 2 м над землей.
R - Количество осадков - Количество выпавших осадков за период времени, мм. При наведении курсора мыши на число - период времени, за который выпало указанное количество осадков.
R24 - Количество осадков - Количество выпавших осадков за 24 часа, мм.
S - Снежный покров - Высота снежного покрова, см. При наведении курсора мыши на число - состояние снежного покрова и степень покрытия местности в баллах.